[[{"header":{"parameterUnit":"m.s-1","parameterCategory":1,"la1":30.2991,"la2":30.254,"lo1":-89.0895,"lo2":-89.0444,"dy":0.0017,"dx":0.0017,"nx":28,"ny":28,"refTime":"2025-02-11T09:00:00:Z","depth":0,"parameterNumber":2,"parameterNumberName":"U-component_of_WINDS"},"data":[0,0,0,0,0,0,0,0,0,0,0,0,0,0,0,0,0,0,0,0,0,0,0,0,0,0,0,0,0,0,0,0,0,0,0,0,0,0,0,0,0,0,0,0,0,0,0,0,0,0,0,0,0,0,0,0,0,0,0.6876,0.6875,0,0.683,0.6829,0.6828,0.6775,0.6774,0.6774,0.6773,0.6726,0.6725,0.6725,0,0,0,0,0,0,0,0,0,0,0,0,0,0.6917,0.6917,0.6876,0.6875,0.6874,0.683,0.6829,0.6828,0.6775,0.6774,0.6773,0.6772,0.6726,0.6725,0.6725,0,0,0,0,0,0,0,0,0,0,0,0,0,0.6888,0.6917,0.6876,0.6843,0.6839,0.683,0.6829,0.6828,0.6776,0.6774,0.6773,0.6772,0.6726,0.6725,0.6725,0.6744,0,0,0.6722,0.6722,0,0,0,0,0,0,0,0,0.689,0.6887,0.6848,0.6845,0.6841,0.6807,0.6826,0.68,0.6776,0.68,0.6773,0.6771,0.6754,0.6751,0.6745,0.6742,0.674,0.6722,0.6722,0.6721,0.6721,0,0,0,0,0,0,0,0.6892,0.6888,0.6857,0.6848,0.6843,0.683,0.6824,0.6821,0.6784,0.6798,0.6794,0.6789,0.6752,0.6746,0.6743,0.6739,0.6722,0.6722,0.6721,0.6721,0.6749,0.675,0,0,0,0,0,0,0.6899,0.689,0.6859,0.6856,0.6863,0.683,0.6824,0.6819,0.6784,0.6777,0.679,0.6787,0.6747,0.6744,0.6741,0.6761,0.6721,0.6721,0.672,0.6748,0.6749,0.6751,0,0,0,0,0,0,0.69,0.6897,0.6861,0.6872,0.6866,0.6831,0.6826,0.6819,0.6813,0.6778,0.6771,0.6791,0.6746,0.6742,0.6743,0.6758,0.672,0.672,0.6746,0.6748,0.675,0.6801,0,0,0,0,0,0,0.6901,0.6897,0.6904,0.6873,0.6866,0.6864,0.6826,0.6819,0.6811,0.6807,0.6777,0.6771,0.6745,0.6745,0.6743,0.6757,0.6719,0.6745,0.6747,0.6749,0.6797,0.6804,0.681,0,0,0,0,0,0.6903,0.6921,0.6905,0.6901,0.6874,0.6865,0.6861,0.6831,0.6813,0.6819,0.6797,0.6772,0.6757,0.6746,0.6743,0.6757,0.6744,0.6746,0.6749,0.6795,0.6803,0.6809,0,0,0,0,0,0,0.6955,0.6916,0.6898,0.6906,0.6889,0.6856,0.6863,0.6841,0.6829,0.6824,0.6788,0.6782,0.6787,0.6772,0.6759,0.6773,0.6747,0.6749,0.6782,0.679,0.6796,0.6799,0.6719,0,0,0,0,0,0.6968,0.6963,0.6929,0.694,0.6932,0.6899,0.6894,0.6873,0.6854,0.6846,0.6824,0.6807,0.6798,0.6793,0.6784,0.6795,0.6788,0.6803,0.681,0.6815,0.6817,0.6821,0.6827,0.6759,0.6759,0.6759,0,0,0.6993,0.6971,0.6971,0.6949,0.6934,0.693,0.6894,0.6891,0.6888,0.6846,0.6845,0.6829,0.6807,0.6813,0.6815,0.6801,0.6834,0.6818,0.6822,0.6822,0.6824,0.6831,0.6837,0.6761,0.6761,0.6761,0,0,0.7037,0.7021,0.7027,0.7012,0.6989,0.6967,0.6969,0.6939,0.6926,0.6925,0.6893,0.6889,0.6875,0.686,0.6851,0.689,0.6866,0.6888,0.6919,0.6924,0.6929,0.6934,0.6947,0.6952,0.6891,0.6891,0.6891,0,0.7072,0.7065,0.7033,0.7033,0.7024,0.6986,0.6991,0.6979,0.6954,0.6948,0.6933,0.6915,0.6897,0.6899,0.6909,0.6903,0.6903,0.6891,0.6931,0.6935,0.6939,0.6951,0.6956,0.6894,0.6893,0.6893,0.6893,0,0.7108,0.7104,0.7112,0.7088,0.7081,0.7084,0.7052,0.7048,0.7027,0.7007,0.7006,0.6984,0.6969,0.6968,0.6948,0.6967,0.6958,0.6938,0.6911,0.6949,0.6959,0.6964,0.6898,0.6897,0.6896,0.6895,0,0,0.7183,0.7142,0.7146,0.7134,0.7106,0.7102,0.7103,0.7088,0.7085,0.7069,0.7069,0.7058,0.7038,0.7028,0.7006,0.701,0.7041,0.6988,0.6987,0.6998,0.706,0.7075,0.708,0.7025,0.7026,0.7027,0.7061,0,0.7221,0.7221,0.7192,0.7199,0.7194,0.7158,0.7159,0.7142,0.7123,0.7116,0.7095,0.7088,0.7063,0.7056,0.7059,0.7037,0.7053,0.7034,0.7023,0.7023,0.7029,0.7086,0.7102,0.7136,0.7065,0.7066,0.7066,0,0.7266,0.7252,0.7259,0.723,0.7227,0.7228,0.7212,0.7206,0.7186,0.7172,0.716,0.7135,0.7134,0.7109,0.7106,0.7094,0.7088,0.7076,0.7077,0.7074,0.7046,0.7084,0.7146,0.715,0.7073,0.7072,0.7072,0,0.7318,0.7302,0.7304,0.7295,0.7262,0.7264,0.725,0.7228,0.7221,0.7207,0.7202,0.7188,0.718,0.717,0.7141,0.7126,0.7141,0.7114,0.7129,0.713,0.7133,0.7133,0.7194,0.7131,0.7131,0.7131,0.7131,0,0.7363,0.7369,0.7327,0.7328,0.7332,0.73,0.7305,0.7288,0.7269,0.7266,0.7234,0.7231,0.7195,0.7188,0.7166,0.7166,0.7163,0.7151,0.7145,0.7153,0.7155,0.7148,0.7145,0.7132,0.7132,0.7132,0.7132,0,0.7422,0.7395,0.7394,0.7363,0.7355,0.736,0.7333,0.7332,0.7312,0.7308,0.7305,0.7273,0.7263,0.7234,0.7217,0.7202,0.7209,0.7198,0.7215,0.7211,0.7227,0.7226,0.7285,0.7291,0.7226,0.7227,0.7227,0,0.7452,0.7455,0.7424,0.742,0.7408,0.7401,0.7393,0.7361,0.7355,0.7332,0.7334,0.7322,0.731,0.7296,0.7271,0.7258,0.7246,0.7268,0.7243,0.7251,0.7244,0.7244,0.7244,0.7272,0.7273,0.7274,0.7275,0,0.7508,0.7494,0.7484,0.747,0.7462,0.7449,0.7434,0.7432,0.7397,0.7391,0.7381,0.7372,0.7354,0.7342,0.7325,0.7311,0.7286,0.7283,0.7285,0.7293,0.7302,0.7296,0.7228,0.7281,0.728,0.728,0.728,0.7279,0.7552,0.7553,0.7531,0.7521,0.7507,0.7494,0.7492,0.7471,0.7462,0.7445,0.7427,0.7419,0.7398,0.7373,0.736,0.7352,0.734,0.7344,0.7344,0.7345,0.7349,0.7305,0.7349,0.7349,0.7349,0.7349,0.7349,0,0.7605,0.7589,0.7581,0.7561,0.7553,0.7532,0.7515,0.7509,0.7503,0.7485,0.7475,0.7463,0.7451,0.7425,0.7411,0.741,0.7399,0.7407,0.7406,0.7403,0.7362,0.736,0.7417,0.7417,0.7417,0.7417,0.7417,0.7417,0.7631,0.7631,0.7615,0.7608,0.7592,0.7583,0.7575,0.7563,0.7549,0.7537,0.7527,0.7511,0.749,0.7474,0.7462,0.7454,0.745,0.7462,0.7451,0.7413,0.7406,0.74,0.7398,0.7462,0.7462,0.7493,0.7493,0.7494]},{"header":{"parameterUnit":"m.s-1","parameterCategory":1,"la1":30.2991,"la2":30.254,"lo1":-89.0895,"lo2":-89.0444,"dy":0.0017,"dx":0.0017,"nx":28,"ny":28,"refTime":"2025-02-11T09:00:00:Z","depth":0,"parameterNumber":3,"parameterNumberName":"V-component_of_WINDS"},"data":[0,0,0,0,0,0,0,0,0,0,0,0,0,0,0,0,0,0,0,0,0,0,0,0,0,0,0,0,0,0,0,0,0,0,0,0,0,0,0,0,0,0,0,0,0,0,0,0,0,0,0,0,0,0,0,0,0,0,6.4741,6.4742,0,6.4879,6.488,6.4882,6.4906,6.4905,6.4904,6.4903,6.5033,6.5037,6.5041,0,0,0,0,0,0,0,0,0,0,0,0,0,6.4486,6.4491,6.4741,6.4743,6.4744,6.4879,6.4881,6.4882,6.4907,6.4905,6.4904,6.4903,6.5031,6.5036,6.5042,0,0,0,0,0,0,0,0,0,0,0,0,0,6.4607,6.4492,6.474,6.4773,6.4777,6.4878,6.4881,6.4883,6.4907,6.4905,6.4903,6.4902,6.5029,6.5036,6.5043,6.5118,0,0,6.5063,6.5066,0,0,0,0,0,0,0,0,6.46,6.4617,6.4766,6.4771,6.4776,6.4874,6.4838,6.4961,6.4907,6.4857,6.4903,6.4901,6.498,6.4991,6.502,6.5124,6.5129,6.5064,6.5068,6.5071,6.5073,0,0,0,0,0,0,0,6.4592,6.4611,6.4795,6.4768,6.4774,6.4776,6.4792,6.4862,6.4926,6.4861,6.4864,6.488,6.4983,6.5014,6.5023,6.5131,6.5064,6.507,6.5074,6.5076,6.5303,6.5305,0,0,0,0,0,0,6.4579,6.4604,6.4791,6.4799,6.4683,6.4782,6.48,6.4844,6.4926,6.4937,6.4882,6.4881,6.5003,6.5016,6.5028,6.5123,6.5071,6.5077,6.5081,6.5301,6.5303,6.5306,0,0,0,0,0,0,6.4574,6.4596,6.4785,6.4702,6.4727,6.4789,6.4838,6.4847,6.4879,6.4941,6.4951,6.4903,6.5002,6.5019,6.5096,6.5127,6.508,6.5086,6.5299,6.5302,6.5304,6.5311,0,0,0,0,0,0,6.4567,6.4594,6.4626,6.4703,6.4731,6.4854,6.484,6.4851,6.4892,6.4892,6.4963,6.4973,6.5002,6.5086,6.5103,6.5136,6.5091,6.5296,6.53,6.5304,6.5308,6.5314,6.5319,0,0,0,0,0,6.4557,6.4619,6.4627,6.465,6.4773,6.4856,6.4872,6.4907,6.4894,6.4925,6.4965,6.4971,6.5121,6.5094,6.5113,6.5148,6.5294,6.5299,6.5303,6.5306,6.5313,6.5318,0,0,0,0,0,0,6.454,6.463,6.464,6.473,6.4786,6.486,6.4901,6.4913,6.4971,6.4968,6.5006,6.5022,6.5097,6.513,6.5098,6.5225,6.5206,6.5215,6.5202,6.5209,6.5214,6.5205,6.5097,0,0,0,0,0,6.4548,6.4612,6.4685,6.4757,6.4785,6.4838,6.4875,6.4898,6.4956,6.4979,6.5024,6.5076,6.5135,6.5173,6.5231,6.5312,6.5328,6.5346,6.5351,6.5355,6.5362,6.5408,6.5417,6.532,6.532,6.532,0,0,6.4562,6.4619,6.4657,6.4755,6.4801,6.4864,6.4858,6.4923,6.4969,6.4987,6.5065,6.51,6.516,6.5241,6.5278,6.527,6.5392,6.536,6.5363,6.5368,6.5413,6.5422,6.543,6.5323,6.5323,6.5322,0,0,6.4621,6.4671,6.4738,6.4785,6.4856,6.4891,6.4906,6.498,6.5005,6.5084,6.5099,6.5151,6.5252,6.5296,6.5331,6.5406,6.5413,6.5423,6.545,6.5494,6.5502,6.5509,6.5536,6.5545,6.5429,6.5429,6.5429,0,6.4629,6.4729,6.4768,6.4836,6.4877,6.49,6.4966,6.5008,6.5092,6.5119,6.511,6.5238,6.528,6.5371,6.539,6.5417,6.5434,6.5416,6.5498,6.5505,6.5512,6.5539,6.5549,6.543,6.543,6.543,6.543,0,6.4735,6.4803,6.4847,6.4934,6.498,6.5045,6.5092,6.5133,6.5151,6.5186,6.5265,6.5317,6.5386,6.5409,6.5425,6.5502,6.5495,6.5491,6.5473,6.5522,6.5548,6.5558,6.5432,6.5431,6.5431,6.5431,0,0,6.4788,6.4897,6.4913,6.4953,6.5033,6.5084,6.5149,6.5221,6.5255,6.5312,6.5366,6.5451,6.5449,6.5488,6.5509,6.5548,6.5605,6.554,6.5542,6.5551,6.5693,6.5696,6.5708,6.561,6.5612,6.5614,6.5688,0,6.4858,6.4981,6.5019,6.5119,6.5182,6.5204,6.526,6.5313,6.5347,6.5402,6.5436,6.5497,6.5489,6.5513,6.5552,6.559,6.5634,6.5585,6.5659,6.5661,6.5645,6.5721,6.5725,6.5793,6.5698,6.57,6.5701,0,6.4957,6.5021,6.5129,6.5202,6.523,6.528,6.5349,6.5402,6.5461,6.5483,6.5528,6.5546,6.5611,6.5588,6.5678,6.5644,6.5675,6.5698,6.5702,6.5711,6.5685,6.5733,6.5816,6.5826,6.5717,6.5716,6.5715,0,6.4987,6.5098,6.5179,6.5211,6.5298,6.5333,6.537,6.5429,6.5469,6.5527,6.5553,6.5616,6.5651,6.5698,6.5731,6.5712,6.5818,6.5798,6.5836,6.5835,6.5859,6.5857,6.5948,6.5876,6.5876,6.5876,6.5876,0,6.5062,6.5127,6.5194,6.5243,6.5316,6.5356,6.5426,6.5463,6.5515,6.5569,6.5589,6.5639,6.568,6.5734,6.5759,6.583,6.5844,6.5862,6.5868,6.5861,6.5859,6.5884,6.588,6.5879,6.5878,6.5878,6.5877,0,6.5109,6.5156,6.5245,6.532,6.5341,6.5391,6.5454,6.5501,6.5535,6.5603,6.5621,6.5674,6.5738,6.5776,6.5856,6.5873,6.5952,6.5955,6.5933,6.5937,6.5973,6.597,6.6084,6.6102,6.6017,6.6018,6.6018,0,6.5155,6.5207,6.5289,6.5329,6.5368,6.5431,6.5474,6.5514,6.5557,6.5629,6.5666,6.5733,6.5789,6.589,6.5933,6.5994,6.6,6.6036,6.6009,6.6001,6.6002,6.5999,6.6004,6.6041,6.6041,6.6042,6.6042,0,6.5232,6.5253,6.5316,6.5388,6.5439,6.5496,6.5552,6.5582,6.5631,6.5677,6.5746,6.579,6.5873,6.5939,6.6004,6.6037,6.6048,6.605,6.6063,6.6057,6.6043,6.6052,6.5947,6.6048,6.6047,6.6047,6.6047,6.6046,6.528,6.5328,6.5395,6.5464,6.5511,6.5563,6.5612,6.5653,6.5713,6.5787,6.5805,6.5877,6.5933,6.6023,6.6058,6.6112,6.6106,6.6123,6.6128,6.6132,6.6134,6.6033,6.6123,6.6123,6.6123,6.6123,6.6123,0,6.536,6.5404,6.5468,6.5548,6.5602,6.5611,6.5673,6.5716,6.5781,6.5835,6.589,6.5968,6.6032,6.608,6.6144,6.6178,6.6184,6.6194,6.6192,6.62,6.6135,6.6119,6.6188,6.6188,6.6188,6.6188,6.6188,6.6188,6.5408,6.549,6.5518,6.5622,6.5664,6.5738,6.5773,6.582,6.5864,6.5952,6.6007,6.6039,6.6089,6.6157,6.6215,6.6227,6.625,6.6259,6.6272,6.6211,6.6204,6.6197,6.6183,6.6263,6.6263,6.6332,6.6333,6.6333]}]]